Weather History for St. Joseph, MO

Change the Weather History Date:

Thursday, April 17, 2014

  Actual Average Record
Temperature  
Mean Temperature 45 °F 55 °F  
Max Temperature 56 °F 66 °F 90 °F (1975)
Min Temperature 34 °F 43 °F 24 °F (1921)
Degree Days  
Heating Degree Days 20 11  
Month to date heating degree days 287 227  
Since 1 July heating degree days 6053 5220  
Cooling Degree Days 0 1  
Month to date cooling degree days 3 10  
Year to date cooling degree days 3 12  
Moisture  
Dew Point 30 °F    
Average Humidity 62    
Maximum Humidity 82    
Minimum Humidity 41    
Precipitation  
Precipitation 0.00 in 0.12 in 2.38 in (1941)
Month to date precipitation 2.04 1.78  
Year to date precipitation 3.27 5.52  
Sea Level Pressure  
Sea Level Pressure 30.26 in    
Wind  
Wind Speed 8 mph (NNW)    
Max Wind Speed 20 mph    
Max Gust Speed 24 mph    
Visibility 10 miles    
Events      
T = Trace of Precipitation, MM = Missing Value Source: NWS Daily Summary

Daily Weather History Graph

Daily Weather History Graph

Search for Another Location

Airport:

Trip Planner

Search our weather history database for the weather conditions in past years. The results will help you decide how hot, cold, wet, or windy it might be!

Date:

Astronomy

Apr. 17, 2014 Rise Set
Actual Time 6:39 AM CDT 7:59 PM CDT
Civil Twilight 6:11 AM CDT 8:28 PM CDT
Nautical Twilight 5:37 AM CDT 9:01 PM CDT
Astronomical Twilight 5:02 AM CDT 9:37 PM CDT
Moon 10:46 PM CDT (4/17) 8:11 AM CDT (4/17)
Length of Visible Light 14h 17m
Length of Day
13h 20m
Waning Gibbous, 93% of the Moon is Illuminated
Apr 17
Waning Gibbous
Apr 22
Last Quarter
Apr 29
New
May 6
First Quarter
May 14
Full

Hourly Weather History & Observations

Time (CDT) Temp. Windchill Dew Point Humidity Pressure Visibility Wind Dir Wind Speed Gust Speed Precip Events Conditions
12:53 AM 39.9 °F 32.9 °F 30.9 °F 70% 30.13 in 10.0 mi NW 11.5 mph - N/A   Mostly Cloudy
1:53 AM 39.9 °F 31.4 °F 30.9 °F 70% 30.14 in 10.0 mi NNW 16.1 mph - N/A   Overcast
2:53 AM 39.0 °F 31.4 °F 30.9 °F 73% 30.15 in 10.0 mi North 12.7 mph - N/A   Overcast
3:53 AM 39.0 °F 32.3 °F 30.9 °F 73% 30.17 in 10.0 mi NW 10.4 mph - N/A   Overcast
4:53 AM 37.9 °F 30.0 °F 28.9 °F 70% 30.21 in 10.0 mi NNW 12.7 mph - N/A   Overcast
5:53 AM 37.0 °F 27.7 °F 28.9 °F 73% 30.21 in 10.0 mi NNW 16.1 mph - N/A   Overcast
6:53 AM 37.0 °F 28.1 °F 28.9 °F 73% 30.26 in 9.0 mi NNW 15.0 mph - N/A   Overcast
7:53 AM 37.0 °F 27.7 °F 28.0 °F 70% 30.28 in 9.0 mi North 16.1 mph - N/A   Overcast
8:53 AM 37.0 °F 28.1 °F 28.0 °F 70% 30.31 in 10.0 mi NNW 15.0 mph - N/A   Overcast
9:53 AM 39.0 °F 31.4 °F 28.0 °F 65% 30.32 in 9.0 mi North 12.7 mph - N/A   Overcast
10:43 AM 41.0 °F - 28.0 °F 60% 30.32 in - North - - N/A   Scattered Clouds
12:53 PM 44.1 °F - 28.9 °F 55% 30.33 in 10.0 mi Calm Calm - N/A   Clear
1:53 PM 46.9 °F - 30.0 °F 52% 30.31 in 10.0 mi Variable 3.5 mph - N/A   Clear
2:53 PM 48.9 °F - 30.0 °F 48% 30.30 in 10.0 mi WSW 4.6 mph - N/A   Clear
3:53 PM 52.0 °F - 30.0 °F 43% 30.28 in 10.0 mi North - - N/A   Clear
4:53 PM 53.1 °F - 30.0 °F 41% 30.27 in 8.0 mi Variable 4.6 mph - N/A   Clear
5:53 PM 54.0 °F - 30.0 °F 40% 30.27 in 10.0 mi Variable 4.6 mph - N/A   Clear
6:53 PM 54.0 °F - 30.9 °F 41% 30.27 in 10.0 mi SSE 8.1 mph - N/A   Clear
7:53 PM 48.0 °F - 33.1 °F 56% 30.28 in 10.0 mi SSE 5.8 mph - N/A   Clear
8:53 PM 46.0 °F 42.5 °F 32.0 °F 58% 30.29 in 10.0 mi South 6.9 mph - N/A   Clear
9:53 PM 44.1 °F 41.5 °F 33.1 °F 65% 30.30 in 9.0 mi SSE 4.6 mph - N/A   Clear
10:53 PM 43.0 °F - 33.1 °F 68% 30.30 in 9.0 mi Calm Calm - N/A   Clear
11:53 PM 37.9 °F - 32.0 °F 79% 30.30 in 9.0 mi Calm Calm - N/A   Clear